| time (UTC) | temp C | wind direction | speed KPH | gust KPH | rain 1hr cm | rain 24hr cm | rain mn cm | humidity % | barometer mb |
| 20260505025240 | 12 | 101 | 12.9 | 20.9 | 0.00 | 0.00 | 0.00 | 53 | 1008.5 |
| 20260505024738 | 12 | 50 | 11.3 | 17.7 | 0.00 | 0.00 | 0.00 | 52 | 1008.5 |
| 20260505024235 | 13 | 63 | 9.7 | 11.3 | 0.00 | 0.00 | 0.00 | 52 | 1008.6 |
| 20260505023732 | 13 | 35 | 14.5 | 20.9 | 0.00 | 0.00 | 0.00 | 52 | 1008.6 |
| 20260505023230 | 13 | 43 | 6.4 | 11.3 | 0.00 | 0.00 | 0.00 | 51 | 1008.7 |
| 20260505022727 | 13 | 20 | 16.1 | 17.7 | 0.00 | 0.00 | 0.00 | 51 | 1008.4 |
| 20260505022224 | 13 | 3 | 9.7 | 16.1 | 0.00 | 0.00 | 0.00 | 51 | 1008.3 |
| 20260505021720 | 13 | 106 | 9.7 | 16.1 | 0.00 | 0.00 | 0.00 | 50 | 1007.9 |
| 20260505021218 | 13 | 346 | 11.3 | 16.1 | 0.00 | 0.00 | 0.00 | 49 | 1007.6 |
| 20260505020713 | 13 | 327 | 8.0 | 14.5 | 0.00 | 0.00 | 0.00 | 49 | 1007.4 |
| 20260505020209 | 13 | 78 | 8.0 | 12.9 | 0.00 | 0.00 | 0.00 | 48 | 1007.1 |
| 20260505015706 | 14 | 13 | 17.7 | 32.2 | 0.00 | 0.00 | 0.00 | 48 | 1007.3 |
| 20260505015203 | 14 | 13 | 27.4 | 37.0 | 0.00 | 0.00 | 0.00 | 46 | 1007.1 |
| 20260505014700 | 15 | 3 | 14.5 | 20.9 | 0.00 | 0.00 | 0.00 | 45 | 1006.2 |
| 20260505014156 | 15 | 37 | 19.3 | 24.1 | 0.00 | 0.00 | 0.00 | 44 | 1006.5 |
| 20260505013653 | 16 | 57 | 14.5 | 22.5 | 0.00 | 0.00 | 0.00 | 43 | 1006.4 |
| 20260505013150 | 16 | 44 | 12.9 | 22.5 | 0.00 | 0.00 | 0.00 | 43 | 1006.5 |
| 20260505012644 | 16 | 343 | 9.7 | 14.5 | 0.00 | 0.00 | 0.00 | 42 | 1006.2 |
| 20260505012140 | 16 | 37 | 12.9 | 20.9 | 0.00 | 0.00 | 0.00 | 42 | 1006.1 |
| 20260505011636 | 16 | 47 | 16.1 | 24.1 | 0.00 | 0.00 | 0.00 | 42 | 1005.8 |
| 20260505011133 | 16 | 358 | 11.3 | 16.1 | 0.00 | 0.00 | 0.00 | 41 | 1005.5 |
| 20260505010628 | 17 | 101 | 11.3 | 14.5 | 0.00 | 0.00 | 0.00 | 41 | 1005.6 |
| 20260505010125 | 17 | 25 | 12.9 | 14.5 | 0.00 | 0.00 | 0.00 | 40 | 1005.3 |
| 20260505005621 | 17 | 25 | 6.4 | 9.7 | 0.00 | 0.00 | 0.00 | 40 | 1005.4 |
| 20260505005118 | 17 | 31 | 19.3 | 20.9 | 0.00 | 0.00 | 0.00 | 40 | 1005.3 |
| 20260505004615 | 17 | 22 | 11.3 | 17.7 | 0.00 | 0.00 | 0.00 | 40 | 1005.4 |
| 20260505004112 | 17 | 53 | 6.4 | 12.9 | 0.00 | 0.00 | 0.00 | 40 | 1005.2 |
| 20260505003609 | 17 | 328 | 9.7 | 12.9 | 0.00 | 0.00 | 0.00 | 39 | 1005.2 |
| 20260505003107 | 17 | 52 | 9.7 | 12.9 | 0.00 | 0.00 | 0.00 | 39 | 1005.1 |
| 20260505002602 | 18 | 359 | 14.5 | 22.5 | 0.00 | 0.00 | 0.00 | 38 | 1005.0 |
| 20260505002101 | 18 | 357 | 16.1 | 22.5 | 0.00 | 0.00 | 0.00 | 38 | 1004.8 |
| 20260505001558 | 18 | 34 | 17.7 | 24.1 | 0.00 | 0.00 | 0.00 | 37 | 1004.3 |
| 20260505001055 | 18 | 16 | 17.7 | 24.1 | 0.00 | 0.00 | 0.00 | 37 | 1004.7 |
| 20260505000552 | 19 | 11 | 20.9 | 27.4 | 0.00 | 0.00 | 0.00 | 36 | 1004.3 |
| 20260505000050 | 19 | 46 | 9.7 | 11.3 | 0.00 | 0.00 | 0.00 | 36 | 1004.5 |
| 20260504235546 | 20 | 44 | 17.7 | 24.1 | 0.00 | 0.00 | 0.00 | 35 | 1004.1 |
| 20260504235043 | 19 | 4 | 6.4 | 11.3 | 0.00 | 0.00 | 0.00 | 35 | 1004.4 |
| 20260504234540 | 19 | 44 | 11.3 | 14.5 | 0.00 | 0.00 | 0.00 | 35 | 1004.3 |
| 20260504234037 | 19 | 26 | 29.0 | 35.4 | 0.00 | 0.00 | 0.00 | 35 | 1004.2 |
| 20260504233532 | 20 | 19 | 9.7 | 14.5 | 0.00 | 0.00 | 0.00 | 35 | 1004.6 |
| 20260504233029 | 20 | 7 | 14.5 | 22.5 | 0.00 | 0.00 | 0.00 | 34 | 1004.5 |
| 20260504232526 | 20 | 9 | 14.5 | 24.1 | 0.00 | 0.00 | 0.00 | 34 | 1004.2 |
| 20260504232024 | 20 | 29 | 11.3 | 20.9 | 0.00 | 0.00 | 0.00 | 34 | 1004.1 |
| 20260504231521 | 20 | 82 | 16.1 | 22.5 | 0.00 | 0.00 | 0.00 | 34 | 1004.2 |
| 20260504231016 | 21 | 54 | 9.7 | 14.5 | 0.00 | 0.00 | 0.00 | 33 | 1004.4 |
| 20260504230513 | 20 | 32 | 14.5 | 24.1 | 0.00 | 0.00 | 0.00 | 33 | 1004.0 |
| 20260504230012 | 20 | 11 | 20.9 | 32.2 | 0.00 | 0.00 | 0.00 | 33 | 1004.4 |
| 20260504225509 | 21 | 15 | 11.3 | 17.7 | 0.00 | 0.00 | 0.00 | 33 | 1004.1 |
| 20260504225006 | 20 | 53 | 8.0 | 14.5 | 0.00 | 0.00 | 0.00 | 34 | 1004.2 |
| 20260504224502 | 20 | 100 | 9.7 | 14.5 | 0.00 | 0.00 | 0.00 | 33 | 1004.2 |
| 20260504223959 | 21 | 55 | 19.3 | 24.1 | 0.00 | 0.00 | 0.00 | 33 | 1003.9 |
| 20260504223456 | 21 | 7 | 19.3 | 29.0 | 0.00 | 0.00 | 0.00 | 32 | 1003.9 |
| 20260504222951 | 21 | 342 | 12.9 | 17.7 | 0.00 | 0.00 | 0.00 | 32 | 1003.8 |
| 20260504222449 | 21 | 56 | 8.0 | 12.9 | 0.00 | 0.00 | 0.00 | 33 | 1003.9 |
| 20260504221946 | 21 | 76 | 9.7 | 11.3 | 0.00 | 0.00 | 0.00 | 33 | 1003.8 |
| 20260504221444 | 21 | 5 | 11.3 | 16.1 | 0.00 | 0.00 | 0.00 | 34 | 1003.9 |
| 20260504220941 | 21 | 15 | 19.3 | 25.7 | 0.00 | 0.00 | 0.00 | 34 | 1003.8 |
| 20260504220437 | 21 | 44 | 14.5 | 17.7 | 0.00 | 0.00 | 0.00 | 34 | 1003.9 |
| 20260504215934 | 21 | 98 | 12.9 | 20.9 | 0.00 | 0.00 | 0.00 | 35 | 1004.0 |
| 20260504215431 | 21 | 357 | 8.0 | 14.5 | 0.00 | 0.00 | 0.00 | 35 | 1003.9 |
| 20260504214927 | 21 | 48 | 11.3 | 14.5 | 0.00 | 0.00 | 0.00 | 34 | 1003.8 |
| 20260504214424 | 21 | 355 | 9.7 | 17.7 | 0.00 | 0.00 | 0.00 | 35 | 1003.8 |
| 20260504213920 | 22 | 53 | 11.3 | 14.5 | 0.00 | 0.00 | 0.00 | 35 | 1003.9 |
| 20260504213416 | 21 | 56 | 6.4 | 12.9 | 0.00 | 0.00 | 0.00 | 35 | 1003.8 |
| 20260504212914 | 21 | 345 | 17.7 | 22.5 | 0.00 | 0.00 | 0.00 | 35 | 1003.7 |
| 20260504212409 | 22 | 359 | 11.3 | 14.5 | 0.00 | 0.00 | 0.00 | 35 | 1003.7 |
| 20260504211908 | 22 | 36 | 11.3 | 12.9 | 0.00 | 0.00 | 0.00 | 34 | 1003.9 |
| 20260504211404 | 22 | 78 | 16.1 | 20.9 | 0.00 | 0.00 | 0.00 | 35 | 1003.5 |
| 20260504210901 | 23 | 27 | 16.1 | 17.7 | 0.00 | 0.00 | 0.00 | 34 | 1003.6 |
| 20260504210358 | 23 | 61 | 11.3 | 14.5 | 0.00 | 0.00 | 0.00 | 34 | 1003.7 |
| 20260504205855 | 23 | 65 | 6.4 | 8.0 | 0.00 | 0.00 | 0.00 | 35 | 1003.5 |
| 20260504205353 | 23 | 32 | 14.5 | 20.9 | 0.00 | 0.00 | 0.00 | 34 | 1003.6 |
| 20260504204851 | 23 | 325 | 8.0 | 11.3 | 0.00 | 0.00 | 0.00 | 34 | 1003.6 |
| 20260504204349 | 23 | 27 | 11.3 | 16.1 | 0.00 | 0.00 | 0.00 | 35 | 1003.3 |
| 20260504203848 | 23 | 60 | 8.0 | 9.7 | 0.00 | 0.00 | 0.00 | 34 | 1003.6 |
| 20260504203344 | 23 | 302 | 11.3 | 14.5 | 0.00 | 0.00 | 0.00 | 33 | 1003.7 |
| 20260504202840 | 23 | 21 | 16.1 | 20.9 | 0.00 | 0.00 | 0.00 | 34 | 1003.5 |
| 20260504202337 | 23 | 313 | 8.0 | 12.9 | 0.00 | 0.00 | 0.00 | 36 | 1003.7 |
| 20260504201834 | 23 | 3 | 16.1 | 24.1 | 0.00 | 0.00 | 0.00 | 35 | 1003.8 |
| 20260504201331 | 23 | 72 | 6.4 | 11.3 | 0.00 | 0.00 | 0.00 | 35 | 1003.8 |
| 20260504200829 | 23 | 18 | 11.3 | 14.5 | 0.00 | 0.00 | 0.00 | 34 | 1003.8 |
| 20260504200325 | 23 | 30 | 22.5 | 27.4 | 0.00 | 0.00 | 0.00 | 33 | 1003.7 |
| 20260504195821 | 23 | 93 | 6.4 | 11.3 | 0.00 | 0.00 | 0.00 | 34 | 1003.8 |
| 20260504195317 | 23 | 19 | 17.7 | 27.4 | 0.00 | 0.00 | 0.00 | 34 | 1004.2 |
| 20260504194814 | 23 | 81 | 6.4 | 8.0 | 0.00 | 0.00 | 0.00 | 34 | 1003.7 |
| 20260504194310 | 23 | 358 | 9.7 | 14.5 | 0.00 | 0.00 | 0.00 | 35 | 1003.6 |
| 20260504193806 | 23 | 28 | 4.8 | 4.8 | 0.00 | 0.00 | 0.00 | 35 | 1003.7 |
| 20260504193304 | 23 | 70 | 11.3 | 14.5 | 0.00 | 0.00 | 0.00 | 34 | 1003.5 |
| 20260504192803 | 24 | 15 | 8.0 | 11.3 | 0.00 | 0.00 | 0.00 | 33 | 1003.5 |
| 20260504192300 | 24 | 23 | 16.1 | 20.9 | 0.00 | 0.00 | 0.00 | 31 | 1003.1 |
| 20260504191759 | 24 | 69 | 8.0 | 12.9 | 0.00 | 0.00 | 0.00 | 33 | 1003.2 |
| 20260504191255 | 25 | 42 | 16.1 | 27.4 | 0.00 | 0.00 | 0.00 | 32 | 1003.2 |
| 20260504190751 | 25 | 13 | 6.4 | 8.0 | 0.00 | 0.00 | 0.00 | 31 | 1003.0 |
| 20260504190247 | 25 | 351 | 12.9 | 16.1 | 0.00 | 0.00 | 0.00 | 31 | 1003.0 |
| 20260504185744 | 25 | 322 | 11.3 | 16.1 | 0.00 | 0.00 | 0.00 | 32 | 1003.2 |
| 20260504185241 | 25 | 19 | 11.3 | 17.7 | 0.00 | 0.00 | 0.00 | 29 | 1003.3 |
| 20260504184737 | 26 | 227 | 11.3 | 14.5 | 0.00 | 0.00 | 0.00 | 24 | 1003.3 |
| 20260504184233 | 26 | 351 | 9.7 | 11.3 | 0.00 | 0.00 | 0.00 | 23 | 1003.0 |
| 20260504183729 | 26 | 10 | 4.8 | 4.8 | 0.00 | 0.00 | 0.00 | 24 | 1003.0 |
| 20260504183226 | 26 | 336 | 11.3 | 14.5 | 0.00 | 0.00 | 0.00 | 23 | 1003.0 |
| 20260504182724 | 26 | 352 | 8.0 | 12.9 | 0.00 | 0.00 | 0.00 | 23 | 1002.9 |
| 20260504182221 | 26 | 15 | 8.0 | 9.7 | 0.00 | 0.00 | 0.00 | 23 | 1003.3 |
| 20260504181719 | 26 | 17 | 8.0 | 9.7 | 0.00 | 0.00 | 0.00 | 23 | 1003.0 |
| 20260504181216 | 26 | 275 | 4.8 | 8.0 | 0.00 | 0.00 | 0.00 | 25 | 1003.0 |
| 20260504180715 | 26 | 302 | 4.8 | 11.3 | 0.00 | 0.00 | 0.00 | 24 | 1003.2 |
| 20260504180213 | 26 | 11 | 4.8 | 9.7 | 0.00 | 0.00 | 0.00 | 22 | 1003.1 |
| 20260504175710 | 26 | 11 | 8.0 | 11.3 | 0.00 | 0.00 | 0.00 | 22 | 1003.0 |
| 20260504175207 | 25 | 71 | 12.9 | 16.1 | 0.00 | 0.00 | 0.00 | 22 | 1002.9 |
| 20260504174705 | 26 | 46 | 4.8 | 8.0 | 0.00 | 0.00 | 0.00 | 23 | 1003.3 |
| 20260504174203 | 26 | 228 | 8.0 | 12.9 | 0.00 | 0.00 | 0.00 | 24 | 1003.2 |
| 20260504173659 | 26 | 73 | 3.2 | 4.8 | 0.00 | 0.00 | 0.00 | 24 | 1003.3 |
| 20260504173156 | 25 | 27 | 8.0 | 11.3 | 0.00 | 0.00 | 0.00 | 22 | 1003.6 |
| 20260504172652 | 25 | 321 | 4.8 | 9.7 | 0.00 | 0.00 | 0.00 | 23 | 1003.3 |
| 20260504172149 | 25 | 0 | 9.7 | 9.7 | 0.00 | 0.00 | 0.00 | 20 | 1003.7 |
| 20260504171645 | 25 | 218 | 4.8 | 4.8 | 0.00 | 0.00 | 0.00 | 24 | 1003.5 |
| 20260504171143 | 25 | 67 | 8.0 | 11.3 | 0.00 | 0.00 | 0.00 | 24 | 1003.8 |
| 20260504170639 | 25 | 348 | 9.7 | 14.5 | 0.00 | 0.00 | 0.00 | 22 | 1003.7 |
| 20260504170137 | 25 | 54 | 3.2 | 3.2 | 0.00 | 0.00 | 0.00 | 23 | 1003.8 |
| 20260504151022 | 21 | 324 | 8.0 | 11.3 | 0.00 | 0.00 | 0.00 | 34 | 1003.7 |
| 20260504150519 | 21 | 223 | 6.4 | 8.0 | 0.00 | 0.00 | 0.00 | 36 | 1003.9 |
| 20260504140950 | 18 | 171 | 3.2 | 4.8 | 0.00 | 0.00 | 0.00 | 43 | 1004.6 |
| 20260504140447 | 17 | 87 | 1.6 | 1.6 | 0.00 | 0.00 | 0.00 | 46 | 1004.2 |
| 20260504130411 | 11 | 0 | 4.8 | 8.0 | 0.00 | 0.00 | 0.00 | 58 | 1004.4 |
| 20260504110259 | 7 | 16 | 1.6 | 1.6 | 0.00 | 0.00 | 0.00 | 68 | 1003.6 |
| 20260504100217 | 10 | 214 | 1.6 | 1.6 | 0.00 | 0.00 | 0.00 | 61 | 1003.8 |
| 20260504090140 | 10 | 186 | 1.6 | 1.6 | 0.00 | 0.00 | 0.00 | 58 | 1003.7 |
| 20260504081610 | 10 | 136 | 3.2 | 4.8 | 0.00 | 0.00 | 0.00 | 57 | 1003.8 |
| 20260504081106 | 11 | 150 | 1.6 | 1.6 | 0.00 | 0.00 | 0.00 | 56 | 1004.1 |
| 20260504080603 | 11 | 158 | 1.6 | 3.2 | 0.00 | 0.00 | 0.00 | 55 | 1003.9 |
| 20260504050410 | 12 | 138 | 1.6 | 1.6 | 0.00 | 0.00 | 0.00 | 52 | 1006.7 |
| 20260504045907 | 12 | 145 | 1.6 | 1.6 | 0.00 | 0.00 | 0.00 | 52 | 1007.0 |
| 20260504045402 | 12 | 175 | 0.0 | 0.0 | 0.00 | 0.00 | 0.00 | 52 | 1007.0 |
| 20260504044859 | 12 | 141 | 0.0 | 1.6 | 0.00 | 0.00 | 0.00 | 52 | 1007.0 |
| 20260504044356 | 12 | 144 | 0.0 | 0.0 | 0.00 | 0.00 | 0.00 | 52 | 1007.3 |
| 20260504043854 | 12 | 140 | 0.0 | 0.0 | 0.00 | 0.00 | 0.00 | 52 | 1007.1 |
| 20260504043350 | 12 | 139 | 0.0 | 1.6 | 0.00 | 0.00 | 0.00 | 51 | 1007.3 |
| 20260504042848 | 12 | 148 | 1.6 | 1.6 | 0.00 | 0.00 | 0.00 | 52 | 1007.2 |
| 20260504042344 | 12 | 154 | 0.0 | 0.0 | 0.00 | 0.00 | 0.00 | 51 | 1007.3 |
| 20260504041840 | 13 | 108 | 0.0 | 0.0 | 0.00 | 0.00 | 0.00 | 51 | 1007.6 |
| 20260504041337 | 13 | 129 | 1.6 | 1.6 | 0.00 | 0.00 | 0.00 | 51 | 1007.3 |
| 20260504040833 | 13 | 171 | 1.6 | 1.6 | 0.00 | 0.00 | 0.00 | 51 | 1007.4 |
| 20260504040331 | 13 | 140 | 1.6 | 1.6 | 0.00 | 0.00 | 0.00 | 51 | 1007.2 |
| 20260504035826 | 13 | 175 | 1.6 | 1.6 | 0.00 | 0.00 | 0.00 | 50 | 1007.2 |
| 20260504035324 | 13 | 164 | 1.6 | 1.6 | 0.00 | 0.00 | 0.00 | 50 | 1006.9 |
| 20260504034821 | 13 | 122 | 1.6 | 3.2 | 0.00 | 0.00 | 0.00 | 48 | 1006.9 |
| 20260504034319 | 13 | 180 | 1.6 | 3.2 | 0.00 | 0.00 | 0.00 | 48 | 1007.2 |
| 20260504033815 | 13 | 157 | 1.6 | 3.2 | 0.00 | 0.00 | 0.00 | 48 | 1007.5 |
| 20260504033314 | 14 | 196 | 1.6 | 1.6 | 0.00 | 0.00 | 0.00 | 47 | 1007.4 |
| 20260504032809 | 14 | 153 | 0.0 | 1.6 | 0.00 | 0.00 | 0.00 | 47 | 1007.3 |
| 20260504032307 | 14 | 146 | 1.6 | 1.6 | 0.00 | 0.00 | 0.00 | 47 | 1007.0 |
| 20260504031804 | 14 | 133 | 1.6 | 1.6 | 0.00 | 0.00 | 0.00 | 47 | 1007.1 |
| 20260504031301 | 14 | 121 | 1.6 | 1.6 | 0.00 | 0.00 | 0.00 | 48 | 1007.5 |
| 20260504030757 | 14 | 104 | 0.0 | 0.0 | 0.00 | 0.00 | 0.00 | 48 | 1007.6 |
| 20260504030254 | 15 | 103 | 0.0 | 0.0 | 0.00 | 0.00 | 0.00 | 47 | 1007.4 |
| 20260504025750 | 15 | 78 | 1.6 | 1.6 | 0.00 | 0.00 | 0.00 | 47 | 1007.6 |